Regional Weather Roundup
Issued by NWS Goodland, KS

Home | Current Version | Previous Version | Graphics & Text | Print | Product List | Glossary On
Versions: 1 2 3 4 5 6 7 8 9 10 11 12 13 14 15 16 17 18 19 20 21 22 23 24 25 26 27 28 29 30 31 32 33 34 35 36 37 38 39 40 41 42 43 44 45 46 47 48 49 50
000
ASUS43 KGLD 060059
RWRGLD

GOODLAND FORECAST AREA HOURLY WEATHER ROUNDUP
NATIONAL WEATHER SERVICE GOODLAND KS
700 PM MDT TUE MAY 05 2015

...OFFICIAL OBSERVATIONS...

CITY           SKY/WX    TMP DP  RH WIND       PRES   REMARKS
GOODLAND KS    LGT RAIN  56  55  97 SE20      29.78F FOG
HILL CITY KS   LGT RAIN  59  57  93 SE15G22   29.84F FOG
IMPERIAL NEB   LGT RAIN  56  52  86 SE24G39   29.83F
MCCOOK NEB     CLOUDY    58  54  86 SE10      29.85F
AKRON CO       LGT RAIN  53  52  96 E21G30    29.76F FOG
BURLINGTON CO  LGT RAIN  56  54  93 SE21      29.76S
LIMON CO       LGT RAIN  50  49  96 W15       29.73F
$$

...UNOFFICIAL OBSERVATIONS...

CITY           SKY/WX    TMP DP  RH WIND       PRES   REMARKS
GOVE KS          N/A     60  32  34 MISG        N/A
LENORA KS        N/A     57  32  39 MISG        N/A
SHARON SPRINGS   N/A     57  56  96 MISG        N/A
KIT CARSON CO    N/A     56  53  90 MISG        N/A
YUMA CO          N/A     58  58 100 E21         N/A
$$


USA.gov is the U.S. government's official web portal to all federal, state and local government web resources and services.